Location: OHP
(43.9325°N, 5.7154°E)
Time: 15:44:05
(UTC+00:00)

BlueWalker 3 - Visible Passes

Search period start: 30 January 2023 00:00
Search period end: 09 February 2023 00:00
Orbit: 499 x 517 km, 53.2° (Epoch: 29 January)

Date Brightness Start Highest point End Pass type
(mag) Time Alt. Az. Time Alt. Az. Time Alt. Az.
30 Jan 3.3 18:05:09 10° W 18:08:37 30° NNW 18:10:44 18° NNE visible
30 Jan 5.0 19:45:10 10° NW 19:45:32 12° NW 19:45:32 12° NW visible
31 Jan 3.3 17:46:16 10° W 17:49:42 30° NNW 17:52:38 13° NE visible
31 Jan 4.6 19:26:15 10° NW 19:27:26 15° NNW 19:27:26 15° NNW visible
01 Feb 3.4 17:27:22 10° W 17:30:46 29° NNW 17:34:13 10° NE visible
01 Feb 4.1 19:07:20 10° NW 19:09:18 19° NNW 19:09:18 19° NNW visible
02 Feb 3.8 18:48:23 10° NW 18:51:09 21° N 18:51:09 21° N visible
03 Feb 3.6 18:29:26 10° NW 18:32:26 21° N 18:32:59 20° NNE visible
04 Feb 3.7 18:10:29 10° NW 18:13:29 21° N 18:14:50 18° NNE visible
04 Feb 4.9 19:49:10 10° NW 19:49:37 13° NW 19:49:37 13° NW visible
05 Feb 3.7 17:51:30 10° NW 17:54:31 21° N 17:56:42 14° NE visible
05 Feb 4.3 19:30:10 10° NW 19:31:30 19° NW 19:31:30 19° NW visible
06 Feb 3.6 17:32:30 10° NW 17:35:32 21° N 17:38:33 10° ENE visible
06 Feb 3.5 19:11:09 10° NW 19:13:23 29° NNW 19:13:23 29° NNW visible
07 Feb 2.7 18:52:07 10° NW 18:55:20 42° N 18:55:20 42° N visible
08 Feb 2.3 18:33:04 10° NW 18:36:51 47° NNE 18:37:20 44° NE visible
08 Feb 5.3 20:11:53 10° WNW 20:12:08 11° WNW 20:12:08 11° WNW visible
